FW8282 Weather Reports


Display with metric or nautical units.
time (UTC)temp
F
wind
direction
speed
MPH
gust
MPH
rain 1hr
in
rain 24hr
in
rain mn
in
humidity
%
barometer
mb
20260831040946 76 151 0.0 0.0 0.00 0.00 0.00 99 1016.0
20260831040441 76 140 0.0 0.0 0.00 0.00 0.00 99 1015.9
20260831035938 76 138 0.0 0.0 0.00 0.01 0.01 99 1015.9
20260831035437 76 163 0.0 0.0 0.00 0.01 0.01 99 1016.0
20260831034932 76 158 0.0 0.0 0.00 0.01 0.01 99 1016.1
20260831034428 76 165 0.0 0.0 0.00 0.01 0.01 99 1016.0
20260831033923 76 150 0.0 0.0 0.00 0.01 0.01 99 1016.1
20260831033418 76 151 0.0 0.0 0.00 0.01 0.01 99 1016.1
20260831032914 76 151 0.0 0.0 0.00 0.01 0.01 99 1016.0
20260831032408 76 127 0.0 0.0 0.00 0.01 0.01 99 1016.0
20260831031903 76 149 0.0 0.0 0.00 0.01 0.01 99 1016.2
20260831031402 76 142 0.0 0.0 0.00 0.01 0.01 99 1016.0
20260831030857 76 156 0.0 0.0 0.00 0.01 0.01 99 1016.1
20260831030355 76 150 0.0 0.0 0.00 0.01 0.01 99 1016.0
20260831025854 76 142 0.0 0.0 0.00 0.01 0.01 99 1016.0
20260831025349 76 142 0.0 0.0 0.00 0.01 0.01 99 1016.1
20260831024844 76 149 0.0 0.0 0.00 0.01 0.01 99 1016.0
20260831024344 76 124 0.0 0.0 0.00 0.01 0.01 99 1016.1
20260831023843 76 149 0.0 0.0 0.00 0.01 0.01 99 1016.2
20260831023342 76 101 0.0 0.0 0.00 0.01 0.01 99 1016.2
20260831022837 76 145 0.0 0.0 0.00 0.01 0.01 99 1016.4
20260831022336 75 127 0.0 0.0 0.00 0.01 0.01 99 1016.3
20260831021831 75 115 0.0 0.0 0.00 0.01 0.01 99 1016.4
20260831021330 75 127 0.0 0.0 0.00 0.01 0.01 99 1016.4
20260831020826 75 127 0.0 0.0 0.00 0.01 0.01 99 1016.4
20260831020321 75 127 0.0 0.0 0.00 0.01 0.01 99 1016.4
20260831015816 75 121 0.0 0.0 0.00 0.01 0.01 99 1016.5
20260831015312 75 131 0.0 0.0 0.00 0.01 0.01 99 1016.5
20260831014812 75 150 0.0 0.0 0.00 0.01 0.01 98 1016.4
20260831014306 75 141 0.0 0.0 0.00 0.01 0.01 98 1016.5
20260831013803 75 140 0.0 0.0 0.00 0.01 0.01 98 1016.6
20260831013302 75 126 0.0 0.0 0.00 0.01 0.01 98 1016.6
20260831012757 75 120 0.0 0.0 0.00 0.01 0.01 98 1016.5
20260831012253 75 124 0.0 0.0 0.00 0.01 0.01 98 1016.3
20260831011751 75 122 0.0 0.0 0.00 0.01 0.01 98 1016.5
20260831011247 75 124 0.0 0.0 0.00 0.01 0.01 98 1016.5
20260831010743 75 123 0.0 0.0 0.00 0.01 0.01 98 1016.5
20260831010237 75 123 0.0 0.0 0.00 0.01 0.01 98 1016.3
20260831005732 76 127 0.0 0.0 0.00 0.01 0.01 98 1016.2
20260831005228 76 137 0.0 0.0 0.00 0.01 0.01 98 1016.3
20260831004723 76 149 0.0 0.0 0.00 0.01 0.01 98 1016.3
20260831004220 76 124 0.0 0.0 0.00 0.01 0.01 98 1016.2
20260831003715 76 122 0.0 0.0 0.00 0.01 0.01 98 1016.2
20260831003211 76 145 0.0 0.0 0.00 0.01 0.01 97 1016.1
20260831002709 76 136 0.0 0.0 0.00 0.01 0.01 97 1016.1
20260831002204 76 198 0.0 0.0 0.00 0.01 0.01 97 1016.2
20260831001701 76 130 0.0 0.0 0.00 0.01 0.01 97 1016.0
20260831001200 76 155 0.0 0.0 0.00 0.01 0.01 97 1015.9
20260831000657 76 170 0.0 0.0 0.00 0.01 0.01 97 1015.9
20260831000152 76 149 0.0 0.0 0.00 0.01 0.01 97 1015.8
20260830235650 76 138 0.0 0.0 0.00 0.01 0.01 97 1015.8
20260830235146 77 119 0.0 0.0 0.00 0.01 0.01 97 1015.9
20260830234641 77 152 0.0 0.0 0.00 0.01 0.01 97 1015.8
20260830234137 77 164 0.0 0.0 0.00 0.01 0.01 97 1015.8
20260830233632 77 156 0.0 0.0 0.00 0.01 0.01 97 1015.7
20260830233127 77 171 0.0 0.0 0.00 0.01 0.01 96 1015.9
20260830232623 77 197 0.0 0.0 0.00 0.01 0.01 96 1015.7
20260830232119 77 172 0.0 0.0 0.00 0.01 0.01 96 1015.7
20260830231615 77 177 0.0 0.0 0.00 0.01 0.01 96 1015.9
20260830231114 78 188 0.0 0.0 0.00 0.01 0.01 96 1015.8
20260830230609 78 245 0.0 0.0 0.00 0.01 0.01 96 1015.8
20260830230104 78 152 0.0 0.0 0.00 0.01 0.01 95 1015.6
20260830225559 78 248 0.0 0.0 0.00 0.01 0.01 95 1015.8
20260830225059 78 212 0.0 0.0 0.00 0.01 0.01 94 1015.9
20260830224558 79 121 0.0 0.0 0.00 0.01 0.01 94 1015.9
20260830224055 79 234 0.0 0.0 0.00 0.01 0.01 93 1016.0
20260830223552 79 238 0.0 0.0 0.00 0.01 0.01 93 1015.9
20260830223051 79 255 0.0 0.0 0.00 0.01 0.01 92 1015.9
20260830222545 79 273 0.0 0.0 0.00 0.01 0.01 91 1016.1
20260830222042 79 264 0.0 0.0 0.00 0.01 0.01 91 1016.0
20260830221538 79 200 0.0 0.0 0.00 0.01 0.01 91 1016.0
20260830221033 79 177 0.0 0.0 0.00 0.01 0.01 91 1016.3
20260830220533 79 179 0.0 0.0 0.00 0.01 0.01 92 1016.1
20260830220031 80 216 0.0 0.0 0.00 0.01 0.01 92 1016.3
20260830215526 80 229 0.0 0.0 0.00 0.01 0.01 92 1016.2
20260830215020 80 359 0.0 0.0 0.00 0.01 0.01 92 1016.0
20260830214515 80 224 0.0 0.0 0.00 0.01 0.01 90 1015.7
20260830214010 80 171 0.0 0.0 0.00 0.01 0.01 90 1015.5
20260830213505 81 167 0.0 0.0 0.00 0.01 0.01 89 1015.4
20260830213000 82 130 0.0 0.0 0.00 0.01 0.01 88 1015.3
20260830212456 83 125 0.0 0.0 0.00 0.01 0.01 85 1015.0
20260830211955 84 52 0.0 0.0 0.00 0.01 0.01 82 1015.3
20260830211450 84 132 0.0 0.0 0.00 0.01 0.01 81 1015.0
20260830210945 84 182 0.0 0.0 0.00 0.01 0.01 80 1014.4
20260830210444 85 191 1.0 3.0 0.00 0.01 0.01 78 1014.5
20260830205937 89 168 3.0 6.0 0.00 0.01 0.01 75 1014.2
20260830205436 94 177 0.0 0.0 0.00 0.01 0.01 65 1014.2
20260830204932 94 140 0.0 0.0 0.00 0.01 0.01 63 1014.1
20260830204431 94 174 0.0 0.0 0.00 0.01 0.01 62 1014.2
20260830203926 94 180 0.0 0.0 0.00 0.01 0.01 62 1014.4
20260830203422 94 165 0.0 0.0 0.00 0.01 0.01 63 1014.4
20260830202921 95 79 0.0 0.0 0.00 0.01 0.01 64 1014.2
20260830202416 95 150 0.0 1.0 0.00 0.01 0.01 63 1013.9
20260830201907 97 203 0.0 0.0 0.00 0.01 0.01 61 1013.9
20260830201400 97 192 0.0 0.0 0.00 0.01 0.01 61 1013.7
20260830200856 97 165 0.0 0.0 0.00 0.01 0.01 58 1014.0
20260830200355 96 195 0.0 0.0 0.00 0.01 0.01 59 1014.4
20260830195851 97 188 0.0 0.0 0.00 0.01 0.01 60 1014.3
20260830195350 96 197 0.0 0.0 0.00 0.01 0.01 59 1014.3
20260830194848 96 164 0.0 0.0 0.00 0.01 0.01 62 1014.5
20260830194342 96 168 0.0 0.0 0.00 0.01 0.01 62 1014.6
20260830193837 96 201 0.0 0.0 0.00 0.01 0.01 64 1014.6
20260830193331 96 165 0.0 0.0 0.00 0.01 0.01 61 1014.6
20260830192827 95 173 0.0 0.0 0.00 0.01 0.01 61 1014.8
20260830192327 95 175 0.0 0.0 0.00 0.01 0.01 63 1014.9
20260830191823 94 176 0.0 0.0 0.00 0.01 0.01 63 1014.8
20260830191322 95 188 0.0 0.0 0.00 0.01 0.01 63 1015.1
20260830190818 95 166 0.0 0.0 0.00 0.01 0.01 64 1015.2
20260830190318 94 174 0.0 0.0 0.00 0.01 0.01 64 1015.4
20260830185817 93 204 0.0 0.0 0.00 0.01 0.01 67 1015.3
20260830185312 93 172 0.0 0.0 0.00 0.01 0.01 67 1015.6
20260830184807 93 151 0.0 0.0 0.00 0.01 0.01 67 1015.4
20260830184306 95 163 0.0 0.0 0.00 0.01 0.01 63 1015.5
20260830183802 95 179 0.0 0.0 0.00 0.01 0.01 65 1015.5
20260830183301 94 178 0.0 0.0 0.00 0.01 0.01 66 1015.6
20260830182757 94 190 0.0 0.0 0.00 0.01 0.01 67 1015.6
20260830182253 92 140 0.0 0.0 0.00 0.01 0.01 69 1015.6
20260830181749 92 108 0.0 0.0 0.00 0.01 0.01 68 1015.8
20260830181244 91 150 0.0 0.0 0.00 0.01 0.01 69 1015.9
20260830180742 92 179 0.0 0.0 0.00 0.01 0.01 69 1015.8
20260830180237 91 158 0.0 0.0 0.00 0.01 0.01 70 1016.1
20260830175731 91 163 0.0 0.0 0.00 0.01 0.01 70 1016.1
20260830175227 93 185 0.0 0.0 0.00 0.01 0.01 66 1016.3
20260830174721 93 164 0.0 0.0 0.00 0.01 0.01 66 1016.1
20260830174217 93 173 0.0 0.0 0.00 0.01 0.01 67 1016.5
20260830173717 94 163 0.0 0.0 0.00 0.01 0.01 69 1016.3
20260830173212 93 199 0.0 0.0 0.00 0.01 0.01 68 1016.0
20260830172709 92 256 0.0 0.0 0.00 0.01 0.01 69 1016.5
20260830172205 91 187 0.0 0.0 0.00 0.01 0.01 71 1016.3
20260830171659 91 306 0.0 0.0 0.00 0.01 0.01 71 1016.4
20260830171154 92 129 0.0 0.0 0.00 0.01 0.01 69 1016.4
20260830170649 92 50 0.0 0.0 0.00 0.01 0.01 71 1016.7
20260830170149 91 161 0.0 0.0 0.00 0.01 0.01 71 1016.8
20260830165643 90 159 0.0 0.0 0.00 0.01 0.01 70 1016.9
20260830165139 91 107 1.0 3.0 0.00 0.01 0.01 70 1016.8
20260830164635 91 117 0.0 0.0 0.00 0.01 0.01 71 1016.8
20260830164131 90 171 0.0 0.0 0.00 0.01 0.01 71 1016.6
20260830163628 91 113 0.0 0.0 0.00 0.01 0.01 73 1016.8
20260830163127 90 185 0.0 0.0 0.00 0.01 0.01 75 1016.9
20260830162623 90 185 0.0 0.0 0.00 0.01 0.01 74 1016.9
20260830162119 89 158 0.0 0.0 0.00 0.01 0.01 76 1016.7
20260830161618 87 161 0.0 0.0 0.00 0.01 0.01 80 1017.0
20260830161113 87 77 0.0 0.0 0.00 0.01 0.01 80 1017.2
20260830160609 87 166 0.0 0.0 0.00 0.01 0.01 81 1017.3
20260830160104 86 169 0.0 0.0 0.00 0.01 0.01 83 1017.2
20260830155600 87 146 0.0 0.0 0.00 0.01 0.01 82 1017.4
20260830155056 88 135 0.0 0.0 0.00 0.01 0.01 80 1017.3
20260830154551 88 111 0.0 0.0 0.00 0.01 0.01 80 1017.5
20260830154047 88 158 0.0 0.0 0.00 0.01 0.01 80 1017.6
20260830153543 88 171 0.0 0.0 0.00 0.01 0.01 79 1017.5
20260830153043 88 155 0.0 0.0 0.00 0.01 0.01 82 1017.6
20260830152537 87 21 0.0 0.0 0.00 0.01 0.01 81 1017.5
20260830152036 87 169 0.0 0.0 0.00 0.01 0.01 80 1017.6
20260830151536 87 142 0.0 0.0 0.00 0.01 0.01 82 1017.6
20260830151031 87 127 0.0 0.0 0.00 0.01 0.01 82 1017.6
20260830150531 86 147 0.0 0.0 0.00 0.01 0.01 83 1017.7
20260830150025 87 150 0.0 0.0 0.00 0.01 0.01 82 1017.7
20260830145520 87 132 0.0 0.0 0.00 0.01 0.01 82 1017.5
20260830145015 87 108 0.0 0.0 0.00 0.01 0.01 82 1017.4
20260830144511 88 134 0.0 0.0 0.00 0.01 0.01 80 1017.7
20260830144006 88 138 0.0 0.0 0.00 0.01 0.01 81 1017.7
20260830143502 87 165 0.0 0.0 0.00 0.01 0.01 83 1017.8
20260830143000 87 163 0.0 0.0 0.00 0.01 0.01 82 1017.6
20260830142455 87 201 0.0 0.0 0.00 0.01 0.01 82 1017.6
20260830141950 87 121 0.0 1.0 0.00 0.01 0.01 82 1017.5
20260830141445 87 163 0.0 0.0 0.00 0.01 0.01 83 1017.6
20260830140941 87 128 0.0 0.0 0.00 0.01 0.01 84 1017.4
20260830140436 87 159 0.0 0.0 0.00 0.01 0.01 83 1017.6
20260830135934 87 136 0.0 0.0 0.00 0.01 0.01 83 1017.5
20260830135430 87 178 0.0 0.0 0.00 0.01 0.01 85 1017.5
20260830134926 86 167 0.0 0.0 0.00 0.01 0.01 87 1017.4
20260830134421 85 94 0.0 0.0 0.00 0.01 0.01 87 1017.5
20260830133916 84 138 0.0 0.0 0.00 0.01 0.01 89 1017.7
20260830133412 83 171 0.0 0.0 0.00 0.01 0.01 94 1017.8
20260830132907 81 160 0.0 0.0 0.00 0.01 0.01 97 1017.6
20260830132403 80 156 0.0 0.0 0.00 0.01 0.01 99 1017.7
20260830131903 80 96 0.0 0.0 0.00 0.01 0.01 99 1017.7
20260830131402 79 166 0.0 0.0 0.00 0.01 0.01 99 1017.6
20260830130857 78 165 0.0 0.0 0.00 0.01 0.01 99 1017.5
20260830130353 78 146 0.0 0.0 0.00 0.01 0.01 99 1017.5
20260830125851 78 147 0.0 0.0 0.00 0.01 0.01 99 1017.5
20260830125347 77 155 0.0 0.0 0.00 0.01 0.01 99 1017.5
20260830124844 76 153 0.0 0.0 0.00 0.01 0.01 99 1017.4
20260830124339 76 159 0.0 0.0 0.00 0.01 0.01 99 1017.5
20260830123836 75 153 0.0 0.0 0.00 0.01 0.01 99 1017.5
20260830123333 75 152 0.0 0.0 0.00 0.01 0.01 99 1017.6
20260830122830 75 150 0.0 0.0 0.00 0.01 0.01 99 1017.2
20260830122325 75 149 0.0 0.0 0.00 0.01 0.01 99 1017.3
20260830121820 75 141 0.0 0.0 0.00 0.01 0.01 99 1017.2
20260830121319 75 159 0.0 0.0 0.00 0.01 0.01 99 1017.1
20260830120815 74 156 0.0 0.0 0.00 0.01 0.01 99 1017.0
20260830120310 74 162 0.0 0.0 0.00 0.01 0.01 99 1017.0
20260830115806 74 157 0.0 0.0 0.00 0.01 0.01 99 1016.7
20260830115305 73 162 0.0 0.0 0.00 0.01 0.01 99 1016.8
20260830114758 73 162 0.0 0.0 0.00 0.01 0.01 99 1016.6
20260830114254 73 170 0.0 0.0 0.00 0.01 0.01 99 1016.8
20260830113749 73 169 0.0 0.0 0.00 0.01 0.01 99 1016.8
20260830113244 73 172 0.0 0.0 0.00 0.01 0.01 99 1016.5
20260830112740 73 172 0.0 0.0 0.00 0.01 0.01 99 1016.8
20260830112236 73 176 0.0 0.0 0.00 0.01 0.01 99 1016.5
20260830111731 73 176 0.0 0.0 0.00 0.01 0.01 99 1016.4
20260830111226 73 176 0.0 0.0 0.00 0.01 0.01 99 1016.2
20260830110726 73 173 0.0 0.0 0.00 0.01 0.01 99 1016.3
20260830110223 73 169 0.0 0.0 0.00 0.01 0.01 99 1016.3
20260830105722 73 176 0.0 0.0 0.00 0.01 0.01 99 1016.2
20260830105218 73 176 0.0 0.0 0.00 0.01 0.01 99 1016.2
20260830104715 73 176 0.0 0.0 0.00 0.01 0.01 99 1016.3
20260830104211 73 170 0.0 0.0 0.00 0.01 0.01 99 1016.0
20260830103710 73 177 0.0 0.0 0.00 0.01 0.01 99 1016.0
20260830103206 73 169 0.0 0.0 0.00 0.01 0.01 99 1015.7
20260830102704 73 176 0.0 0.0 0.00 0.01 0.01 99 1015.8
20260830102200 73 170 0.0 0.0 0.00 0.01 0.01 99 1016.0
20260830101655 73 176 0.0 0.0 0.00 0.01 0.01 99 1015.7
20260830101151 73 172 0.0 0.0 0.00 0.01 0.01 99 1016.0
20260830100645 73 176 0.0 0.0 0.00 0.01 0.01 99 1015.8
20260830100144 73 176 0.0 0.0 0.00 0.01 0.01 99 1015.5
20260830095643 73 161 0.0 0.0 0.00 0.01 0.01 99 1015.6
20260830095141 73 168 0.0 0.0 0.00 0.01 0.01 99 1015.4
20260830094636 73 172 0.0 0.0 0.00 0.01 0.01 99 1015.3
20260830094131 73 176 0.0 0.0 0.00 0.01 0.01 99 1015.5
20260830093626 73 176 0.0 0.0 0.00 0.01 0.01 99 1015.3
20260830093123 73 169 0.0 0.0 0.00 0.01 0.01 99 1015.3
20260830092617 73 169 0.0 0.0 0.00 0.01 0.01 99 1015.4
20260830092115 73 169 0.0 0.0 0.00 0.01 0.01 99 1015.5
20260830091609 73 169 0.0 0.0 0.00 0.01 0.01 99 1015.5
20260830091108 74 176 0.0 0.0 0.00 0.01 0.01 99 1015.4
20260830090603 74 176 0.0 0.0 0.00 0.01 0.01 99 1015.2
20260830090059 74 168 0.0 0.0 0.00 0.01 0.01 99 1015.4
20260830085553 74 172 0.0 0.0 0.00 0.01 0.01 99 1015.4
20260830085049 74 161 0.0 0.0 0.00 0.01 0.01 99 1015.5
20260830084544 74 132 0.0 0.0 0.00 0.01 0.01 99 1015.6
20260830084044 74 161 0.0 0.0 0.00 0.01 0.01 99 1015.7
20260830083539 74 168 0.0 0.0 0.00 0.01 0.01 99 1015.7
20260830083039 74 169 0.0 0.0 0.00 0.01 0.01 99 1015.9
20260830082535 74 176 0.0 0.0 0.00 0.01 0.01 99 1015.8
20260830082030 74 169 0.0 0.0 0.00 0.01 0.01 99 1015.6
20260830081526 74 169 0.0 0.0 0.00 0.01 0.01 99 1015.5
20260830081025 74 172 0.0 0.0 0.00 0.01 0.01 99 1015.7
20260830080520 74 175 0.0 0.0 0.00 0.01 0.01 99 1015.8
20260830080015 74 169 0.0 0.0 0.00 0.01 0.01 99 1015.8
20260830075509 74 161 0.0 0.0 0.00 0.01 0.01 99 1015.8
20260830075005 74 176 0.0 0.0 0.00 0.01 0.01 99 1015.9
20260830074501 74 142 0.0 0.0 0.00 0.01 0.01 99 1016.1
20260830073956 74 132 0.0 0.0 0.07 0.01 0.01 99 1016.0
20260830073452 74 161 0.0 0.0 0.07 0.01 0.01 99 1016.1
20260830072946 74 170 0.0 0.0 0.00 0.00 0.00 99 1015.9
20260830072443 74 159 0.0 0.0 0.00 0.00 0.00 99 1016.2
20260830071942 74 169 0.0 0.0 0.00 0.00 0.00 99 1015.8
20260830071437 74 176 0.0 0.0 0.00 0.00 0.00 99 1016.1
20260830070935 74 161 0.0 0.0 0.00 0.00 0.00 99 1015.9
20260830070430 74 176 0.0 0.0 0.00 0.00 0.00 99 1016.1
20260830065929 74 161 0.0 0.0 0.00 0.00 0.00 99 1016.1
20260830065424 74 172 0.0 0.0 0.00 0.00 0.00 99 1016.2
20260830064922 74 169 0.0 0.0 0.00 0.00 0.00 99 1016.6
20260830064418 74 144 0.0 0.0 0.00 0.00 0.00 99 1016.3
20260830063917 74 163 0.0 0.0 0.00 0.00 0.00 99 1016.4
20260830063412 74 169 0.0 0.0 0.00 0.00 0.00 99 1016.2
20260830062911 74 169 0.0 0.0 0.00 0.00 0.00 99 1016.1
20260830062410 74 170 0.0 0.0 0.00 0.00 0.00 99 1016.2
20260830061905 74 161 0.0 0.0 0.00 0.00 0.00 99 1016.3
20260830061400 74 170 0.0 0.0 0.00 0.00 0.00 99 1016.2
20260830060857 74 171 0.0 0.0 0.00 0.00 0.00 99 1016.1
20260830060353 74 161 0.0 0.0 0.00 0.00 0.00 99 1016.3
20260830055853 74 150 0.0 0.0 0.00 0.00 0.00 99 1016.2
20260830055349 74 176 0.0 0.0 0.00 0.00 0.00 99 1016.3
20260830054844 74 108 0.0 0.0 0.00 0.00 0.00 99 1016.5
20260830054340 74 176 0.0 0.0 0.00 0.00 0.00 99 1016.3
20260830053836 74 161 0.0 0.0 0.00 0.00 0.00 99 1016.5
20260830053331 74 161 0.0 0.0 0.00 0.00 0.00 99 1016.6
20260830052830 74 156 0.0 0.0 0.00 0.00 0.00 99 1016.5
20260830052326 74 155 0.0 0.0 0.00 0.00 0.00 99 1016.6
20260830051821 74 162 0.0 0.0 0.00 0.00 0.00 99 1016.6
20260830051316 74 161 0.0 0.0 0.00 0.00 0.00 99 1016.7
20260830050815 74 169 0.0 0.0 0.00 0.00 0.00 99 1016.5
20260830050311 74 151 0.0 0.0 0.00 0.00 0.00 99 1016.8
20260830045808 74 156 0.0 0.0 0.00 0.00 0.00 99 1017.1
20260830045306 74 162 0.0 0.0 0.00 0.00 0.00 99 1016.8
20260830044803 74 151 0.0 0.0 0.00 0.00 0.00 99 1016.7
20260830044259 74 144 0.0 0.0 0.00 0.00 0.00 99 1016.8
20260830043754 74 139 0.0 0.0 0.00 0.00 0.00 99 1017.1
20260830043253 74 162 0.0 0.0 0.00 0.00 0.00 99 1016.8
20260830042751 74 151 0.0 0.0 0.00 0.00 0.00 99 1017.0
20260830042246 74 158 0.0 0.0 0.00 0.00 0.00 99 1017.0
20260830041745 74 148 0.0 0.0 0.00 0.00 0.00 99 1016.9